COSMOS 2522 (752)

Last updated on Mon Jun 22 2026 00:03:26 GMT+0000 (Coordinated Universal Time)

1 42939U 17055A 26171.87700781 .00000069 00000+0 00000+0 0 9993 2 42939 64.0794 191.7591 0011202 244.2944 115.6333 2.13101192 68058
UTC large
Height (km)
Speed (km/s)
/
Latitude / Longitude
Inclination (degrees)
Orbital Period (minutes)
Azimuth
Elevation
Range (km)
Doppler Factor

Next 0 passes for location: London (51.5072 / 0.1276)

No passes found over London.
COSMOS 2522 (752)